Regional Weather Roundup
Issued by NWS Kansas City/Pleasant Hill, MO

Home | Current Version | Previous Version | Graphics & Text | Print | Product List | Glossary Off
Versions: 1 2 3 4 5 6 7 8 9 10 11 12 13 14 15 16 17 18 19 20 21 22 23 24 25 26 27 28 29 30 31 32 33 34 35 36 37 38 39 40 41 42 43 44 45 46 47 48 49 50

000
ASUS43 KEAX 240110
RWREAX

WEATHER ROUNDUP FOR EASTERN KANSAS AND NORTHWEST MISSOURI
NATIONAL WEATHER SERVICE KANSAS CITY/PLEASANT HILL MO
800 PM CDT SUN APR 23 2017

KSZ040-057-103>105-MOZ028-029-037-043-240200-
...KANSAS CITY METROPOLITAN AREA...

CITY           SKY/WX    TMP DP  RH WIND       PRES   REMARKS
K.C. INTL      CLOUDY    64  34  32 SW5       29.99F
K.C. DOWNTOWN  CLOUDY    65  33  30 S9        29.99S
LEES SUMMIT    CLEAR     65  31  28 S6        30.01S
OLATHE - IXD   CLEAR     58  37  45 S5        30.00F
OLATHE - OJC   CLOUDY    61  37  41 S3        30.00F
LAWRENCE       CLEAR     63  36  36 SE8       29.99F

$$

MOZ001>008-011>017-020>025-030>033-038>040-044>046-053-054-240200-
...NORTHERN AND CENTRAL MISSOURI...

CITY           SKY/WX    TMP DP  RH WIND       PRES   REMARKS
ST. JOSEPH     CLOUDY    63  35  35 S9        29.98F
MOSBY          CLOUDY    66  30  26 S3        30.00S
WHITEMAN AFB   CLEAR     63  35  34 S3        29.99F
CLINTON        CLEAR     64  34  32 CALM      30.01F
SEDALIA        NOT AVBL
WARSAW         NOT AVBL
CHILLICOTHE      N/A     64  39  39 CALM      30.01S
KIRKSVILLE     CLEAR     64  28  25 SE6       30.01F

$$

MOZ041-047>049-056>058-063>065-088>090-097-240200-
...EASTERN AND SOUTHERN MISSOURI...

CITY           SKY/WX    TMP DP  RH WIND       PRES   REMARKS
ST. LOUIS INTL PTCLDY    65  30  27 N7        30.00S
SPIRIT OF STL  CLEAR     57  42  57 CALM      29.99F
COLUMBIA       CLEAR     65  30  27 CALM      30.02F
JEFFERSON CITY CLEAR     65  39  38 CALM      30.00F
ROLLA          CLEAR     61  35  37 N3        30.01F
OSAGE BEACH    CLEAR     60  36  40 CALM      30.03
SPRINGFIELD    CLEAR     65  32  29 N5        30.02F
BRANSON        PTCLDY    63  37  39 NW7       30.04S
JOPLIN         CLEAR     61  41  47 CALM      30.03F
WEST PLAINS    CLEAR     62  30  29 N7        30.01S

$$

IAZ060-094-KSZ022-034>040-054-083-096-NEZ052-066-093-240200-
...KANSAS...SOUTHEAST NEBRASKA AND IOWA...

CITY           SKY/WX    TMP DP  RH WIND       PRES   REMARKS
TOPEKA         CLOUDY    65  36  34 S5        29.98F
MANHATTAN      CLOUDY    64  36  35 S7        29.96F
EMPORIA        PTCLDY    59  42  53 S7        29.99F
CHANUTE        CLEAR     59  43  55 SE5       30.00F
WICHITA        PTCLDY    59  41  51 MISG      29.98F
OMAHA          MOCLDY    69  28  21 S14       29.91F
LINCOLN        CLEAR     64  29  26 S15       29.92S
FALLS CITY     PTCLDY    63  33  32 S8        29.95F
LAMONI         CLEAR     64  32  30 S6        29.98F
DES MOINES     CLOUDY    64  34  32 S7        29.97F

$$




USA.gov is the U.S. government's official web portal to all federal, state and local government web resources and services.